Location: Turtle Rock Observatory
(36.6913°N, 81.9708°W)
Time: 18:30:51
(UTC-04:00)

Daily predictions for brighter satellites

Satellite Brightness Start Highest point End
(mag) Time Altitude Azimuth Time Altitude Azimuth Time Altitude Azimuth
ERBS 2.3 20:39:06 10° NW 20:42:34 84° NE 20:46:02 10° SE
USA 186 2.7 20:40:53 10° SE 20:43:13 25° ENE 20:45:41 10° NNE
Cosmos 2227 4.3 20:39:05 10° NNW 20:44:52 88° ENE 20:50:33 10° SSE
Resurs 1-3 3.7 20:42:27 10° SSE 20:46:45 58° ENE 20:51:04 10° N
Cosmos 1455 3.2 20:46:32 10° SSW 20:50:13 50° W 20:53:54 10° N
Meteor 2-20 4.5 20:45:43 10° N 20:51:49 67° E 20:57:55 10° SSE
HJ-1C 4.4 20:51:09 10° S 20:54:29 51° W 20:57:52 10° NNW
USA 229 DEB 4.3 20:51:44 10° S 20:57:31 31° ESE 21:03:22 10° NE
USA 229 4.4 20:51:52 10° S 20:57:38 30° ESE 21:03:27 10° NE
FENGYUN 3A 4.4 20:52:33 10° S 20:57:46 54° W 21:03:01 10° NNW
Cosmos 2242 Rocket 3.6 20:59:16 10° S 21:03:46 72° E 21:08:13 10° NNE
Cosmos 220 Rocket 4.0 21:00:30 10° NNW 21:04:59 83° ENE 21:09:25 10° SSE
Cosmos 1939 Rocket 3.9 21:04:38 14° SE 21:07:26 29° ENE 21:10:55 10° NNE
Cosmos 1992 Rocket 3.9 21:03:25 10° S 21:08:37 73° ESE 21:13:51 10° NNE
Cosmos 2195 Rocket 4.4 21:03:29 10° N 21:09:37 79° E 21:15:47 10° S
Cosmos 2279 Rocket 4.0 21:03:36 10° S 21:09:42 60° E 21:15:49 10° NNE
Intercosmos 25 Rocket 2.9 21:08:31 10° S 21:11:38 74° E 21:15:34 10° N
Cosmos 1627 Rocket 4.4 21:05:27 10° N 21:11:40 80° E 21:17:47 10° S
Atlas Centaur 2 3.0 21:10:22 10° WSW 21:16:34 47° SSE 21:22:35 16° ESE
Cosmos 2263 Rocket 2.4 21:11:18 10° NNW 21:16:44 52° ENE 21:20:53 17° SE
Lacrosse 4 Rocket 1.7 21:17:30 10° NNW 21:21:51 74° WSW 21:25:39 14° SSE
Helios 1B rocket 2.3 21:18:21 10° NNE 21:22:28 78° E 21:26:34 10° S
Cosmos 2322 Rocket 3.0 21:18:52 10° SW 21:24:20 55° WNW 21:29:52 10° NNE
Resurs 01 Rocket 2.8 21:21:01 10° S 21:25:13 42° W 21:29:28 10° NNW
Cosmos 1428 Rocket 4.5 21:19:58 10° N 21:26:03 63° E 21:31:41 12° SSE
SAR-Lupe-4 3.5 21:27:54 18° SSE 21:30:29 85° E 21:34:06 10° NNW
COSMOS 2428 3.6 21:29:08 20° SE 21:31:23 26° ESE 21:36:02 10° NE
Cosmos 2360 Rocket 2.1 21:27:05 10° S 21:32:39 65° ESE 21:38:16 10° NNE
Cosmos 1825 2.9 21:31:40 10° NNW 21:35:24 54° W 21:39:06 10° S
OAO 3 Rocket 3.3 21:33:16 10° W 21:38:07 66° S 21:40:29 30° ESE
Cosmos 2180 Rocket 4.5 21:32:09 10° S 21:38:31 85° E 21:44:53 10° N
Cosmos 1908 Rocket 3.9 21:39:42 10° N 21:43:52 45° E 21:45:06 35° ESE
Sich 1 Rocket 3.9 21:41:08 10° N 21:45:30 48° E 21:46:55 35° SE
Cosmos 968 Rocket 3.8 21:41:20 10° N 21:46:25 50° ENE 21:48:27 32° SE
SAR-Lupe-1 4.3 21:45:53 24° S 21:47:52 65° WSW 21:51:27 10° NNW
Cosmos 2322 3.6 21:42:12 10° SSW 21:47:53 75° ESE 21:53:36 10° NNE
ATLAS 5 CENTAUR R/B 2.5 21:44:20 10° NNW 21:50:24 65° NE 21:53:35 31° SE
Cosmos 1408 4.4 21:47:19 10° NNW 21:50:35 30° W 21:53:48 10° SSW
SL-16 R/B 4.1 21:49:29 10° WSW 21:54:29 32° WNW 21:59:32 10° N
Meteor 1-29 4.3 21:53:38 10° N 21:56:54 40° WNW 22:00:08 10° SW
ARGOS 4.0 21:56:21 29° E 21:57:26 32° ENE 22:02:08 10° N
Cosmos 1782 Rocket 4.1 21:54:15 10° N 21:58:21 37° E 21:58:28 37° E
Envisat 3.5 21:54:22 15° S 21:58:27 59° W 22:03:28 10° NNW
Cosmos 1867 3.6 21:54:02 10° NNW 21:59:27 63° ENE 22:01:17 40° ESE
H-2A R/B 3.5 21:59:46 19° ENE 21:59:53 19° ENE 22:03:20 10° NNE
USA 234 3.4 21:56:41 30° ESE 22:00:04 65° NE 22:06:32 10° NW
Cosmos 1733 Rocket 4.2 21:57:20 10° NNW 22:01:33 42° W 22:05:13 13° SSW
Okean 1-7 3.1 22:08:39 54° E 22:08:39 54° E 22:12:55 10° NNE
Cosmos 2333 4.3 22:08:24 39° SSE 22:10:03 52° ESE 22:15:37 10° NNE
Okean 2 Rocket 3.9 22:06:14 10° N 22:10:03 36° ENE 22:10:03 36° ENE
Cosmos 2237 Rocket 4.4 22:14:04 11° ENE 22:14:04 11° ENE 22:14:19 10° ENE
Cosmos 2333 Rocket 3.8 22:13:24 20° ENE 22:13:24 20° ENE 22:15:44 10° NE
SEDSat Delta rocket 3.9 22:10:29 10° WSW 22:15:35 48° S 22:16:15 46° SSE
Cosmos 2278 Rocket 4.1 22:13:43 10° NNE 22:16:59 15° NE 22:17:43 15° ENE
BREEZE-M DEB (TANK) 4.4 21:58:19 10° NW 22:18:31 76° SW 22:20:45 43° SSE
Cosmos 1844 Rocket 3.4 22:13:34 10° N 22:18:41 36° ENE 22:19:16 35° ENE
YAOGAN 6 3.2 22:21:30 50° WSW 22:21:43 51° W 22:25:15 10° NNW
ERS-1 Rocket 3.0 22:22:03 46° S 22:23:33 73° WSW 22:28:34 10° NNW
MetOp-A 4.0 22:25:28 59° SSE 22:26:32 82° ENE 22:31:55 10° N
Nimbus 7 Rocket 4.4 22:20:56 10° NNE 22:26:49 58° ESE 22:27:31 54° SE
SeaSat 1 3.1 22:27:56 39° ENE 22:28:02 39° ENE 22:32:36 10° N
Cosmos 1703 Rocket 4.2 22:27:00 33° SW 22:28:45 54° W 22:33:06 10° N
Milstar 3 3.7 22:24:41 10° WSW 22:31:00 30° SSW 22:31:42 29° S
Cosmos 1782 4.2 22:36:14 32° NNE 22:36:14 32° NNE 22:38:29 10° NNE
Cosmos 2219 Rocket 2.6 22:37:34 46° ENE 22:37:34 46° ENE 22:41:53 10° NNE
NOSS 3-1 (C) 3.1 22:42:31 71° ESE 22:42:31 71° ESE 22:48:43 10° NE
Cosmos 2266 Rocket 4.4 22:38:25 10° NNW 22:44:37 60° W 22:47:08 36° SSW
SPOT 1/Viking Rocket 3.6 22:47:41 66° NE 22:47:41 66° NE 22:52:32 10° N
SPOT 5 2.9 22:50:39 72° WNW 22:50:39 72° WNW 22:55:00 10° NNW
Cosmos 1777 Rocket 4.1 22:53:02 10° NNW 22:58:03 69° W 22:58:03 69° W
NOSS 3-1 (A) 4.0 23:00:30 44° NE 23:00:30 44° NE 23:04:49 10° NE
NOSS 0 Rocket 4.4 23:01:38 46° NE 23:01:38 46° NE 23:06:03 10° NNE
Cosmos 2263 Rocket 4.3 22:56:29 10° WNW 23:00:10 18° W 23:02:37 14° SW
ASTEX 1 4.5 23:02:21 36° NNE 23:02:21 36° NNE 23:05:34 10° N
Atlas Centaur 2 3.1 22:58:47 10° WSW 23:05:13 52° SSW 23:05:13 52° SSW
Cosmos 1244 Rocket 4.4 23:04:08 10° N 23:10:25 82° W 23:10:33 82° WSW
H-2A R/B 3.8 23:14:15 28° N 23:14:15 28° N 23:16:24 10° N
MOS 1-B Rocket 4.2 23:12:55 56° WSW 23:13:16 57° WSW 23:18:49 10° NNW
COSMOS 2428 4.0 23:10:54 14° SW 23:15:24 38° WNW 23:20:43 10° N
Cosmos 1553 Rocket 4.0 23:17:12 71° NNE 23:17:12 71° NNE 23:22:45 10° N
Meteor 1-11 Rocket 4.3 23:14:22 10° N 23:18:30 49° NNE 23:18:30 49° NNE
CZ-4C R/B 3.3 23:16:59 10° NNW 23:23:59 50° NE 23:24:27 50° ENE
Cosmos 1844 4.3 23:25:26 10° NNW 23:29:52 54° NW 23:29:52 54° NW
SL-16 R/B 4.3 23:36:35 16° NE 23:36:35 16° NE 23:37:44 10° NE
ATLAS 5 CENTAUR R/B 4.2 23:30:14 10° WNW 23:34:46 21° WSW 23:35:10 21° WSW
Terra 3.4 23:40:43 33° NNW 23:40:43 33° NNW 23:43:20 10° NNW
H-2A R/B 3.3 23:40:23 35° WNW 23:40:23 35° WNW 23:43:42 10° NNW
USA 234 4.4 23:44:02 30° WSW 23:44:02 30° WSW 23:48:57 10° WNW
S3M 4.5 23:47:55 55° NW 23:47:55 55° NW 23:53:19 10° N
Cosmos 2237 Rocket 3.3 23:55:50 41° NNW 23:55:50 41° NNW 23:59:48 10° NNE
